< < Back
Terminal Aerodrome Forecast


Current Version              Previous Versions:   1  2  3  4  5  6  7  8  9  

Terminal Aerodrome Forecast

036
FTUS44 KBMX 191100
TAFTCL
TAF
KTCL 191120Z 1912/2012 00000KT P6SM BKN050
     FM191400 01008G16KT P6SM SCT060
     FM192100 02007KT P6SM SCT050
     FM200000 04004KT P6SM SKC=

Latest METAR

231
SAUS70 KWBC 191400 RRP
MTRTCL
METAR KTCL 191353Z 35007KT 10SM CLR 15/10 A3014 RMK AO2 SLP203
T01500100


USA.gov is the U.S. government's official web portal to all federal, state and local government web resources and services.